www.pogodaiklimat.ru

ПОГОДА в Дюранте, OK

  • Прогноз погоды в Дюранте
  • Монитор погоды в Дюранте
  • Климат в Дюранте

АРХИВ ПОГОДЫ в Дюранте

Время (UTC), дата Ветер
(напр.,м/с)
 
Видим.   Явления Облачность Т
(С)
Тd
(С)
f
(%)
Тe
(С)
Тes
(С)
Комфортность

P
(гПа)

Po
(гПа)
Тmin
(С)
Tmax
(С)
R
(мм)
SD
(см)
05:55 23.05 Ю  16 км    10/10 600 м  +24.0  +21.0  83  +30  +30  очень
душно 
           
07:37 23.05 ЮВ  16 км    10/10 720 м  +23.0  +21.0  89  +31  +31  очень
душно 
  988.4         
07:56 23.05 ЮВ  16 км    10/10 690 м                988.7         
08:37 23.05 Ю  16 км    10/10 630 м  +24.0  +21.0  83  +30  +30  очень
душно 
  988.7         
09:55 23.05 ЮВ  16 км    10/10 600 м  +23.0  +21.0  89  +31  +31  очень
душно 
  989.4         
10:16 23.05 ЮВ  16 км    10/10 540 м  +23.0  +21.0  89  +31  +31  очень
душно 
  990.1         
10:37 23.05 ЮВ  16 км    10/10 540 м  +23.0  +21.0  89  +31  +31  очень
душно 
  990.4         
11:16 23.05 ЮВ  16 км    10/10 540 м  +23.0  +21.0  89  +31  +31  очень
душно 
  990.4         
16:55 23.05 Ю  7
{10} 
16 км    5/5 1050 м  +29.0  +21.0  62  +36  +38  очень
душно 
  991.7         
18:15 23.05 ЮВ  8
{10} 
16 км    8/8 1170 м  +30.0  +20.0  55  +36  +37  очень
душно 
  991.1         
21:37 23.05 ЮВ  8
{10} 
16 км    5/5 1380 м  +30.0  +20.0  55  +36  +37  очень
душно 
  989.4         
22:17 23.05 Ю  6
{8} 
16 км    ясно  +30.0  +20.0  55  +36  +38  очень
душно 
  989.1         
02:56 24.05 ЮВ  5
{8} 
16 км    ясно  +24.0  +21.0  83  +30  +30  очень
душно 
  989.4         
04:16 24.05 ЮВ  16 км    ясно  +25.0  +21.0  78  +31  +31  очень
душно 
  989.4         
08:16 24.05 Ю  16 км    8/8 660 м  +24.0  +21.0  83  +30  +30  очень
душно 
  990.1         
08:56 24.05 Ю  16 км    10/10 660 м  +23.0  +21.0  89  +31  +31  очень
душно 
  990.7         
09:35 24.05 ЮВ  16 км    10/10 1050 м  +23.0  +21.0  89  +31  +31  очень
душно 
  990.7         
09:56 24.05 ЮВ  16 км    10/10 1230 м  +23.0  +21.0  89  +31  +31  очень
душно 
  991.1         
14:37 24.05 Ю  8
{11} 
16 км    5/5 630 м  +27.0  +21.0  70  +34  +35  очень
душно 
  992.4         
14:56 24.05 Ю  8
{10} 
16 км    5/5 690 м  +27.0  +21.0  70  +34  +35  очень
душно 
  992.4         
15:57 24.05 Ю  7
{10} 
16 км    8/8 840 м  +28.0  +21.0  66  +35  +36  очень
душно 
  992.4         
21:17 24.05 Ю  8
{11} 
16 км    8/8 1440 м  +29.0  +19.0  55  +34  +35  очень
душно 
  989.1         
23:15 24.05 Ю  16 км    ясно  +29.0  +18.0  51  +33  +34  очень
душно 
  988.4         
04:16 25.05 Ю  16 км    ясно  +22.0  +19.0  83  +27  +27  душно    991.4         
08:15 25.05 Ю  16 км    5/5 930 м  +21.0  +19.0  88  +26  +26  душно    991.1         
10:17 25.05 Ю  16 км    5/5 510 м  +20.0  +19.0  94  +23  +23  комфорт    991.4         
10:57 25.05 Ю  16 км    5/5 390 м  +21.0  +20.0  94  +26  +26  душно    991.4         
12:15 25.05 Ю  16 км    10/10 390 м  +23.0  +20.0  83  +30  +30  очень
душно 
  992.4         
13:15 25.05 Ю  16 км    8/8 570 м  +23.0  +19.0  78  +29  +30  очень
душно 
  993.0         
13:35 25.05 ЮЗ  5
{7} 
16 км    10/10 540 м  +24.0  +20.0  78  +29  +29  душно    993.4         
14:17 25.05 Ю  7
{10} 
16 км    ясно  +26.0  +19.0  65  +31  +33  очень
душно 
  993.7         
15:15 25.05 Ю  7
{10} 
16 км    5/5 960 м  +27.0  +19.0  62  +32  +34  очень
душно 
  993.4         
16:17 25.05 Ю  5
{8} 
16 км    5/5 1020 м  +28.0  +19.0  58  +33  +37  очень
душно 
  993.4         
16:38 25.05 Ю  16 км    8/8 1110 м  +28.0  +19.0  58  +33  +35  очень
душно 
  993.4         
18:15 25.05 Ю  6
{8} 
16 км    5/5 1290 м  +30.0  +19.0  52  +35  +38  очень
душно 
  992.4         
20:38 25.05 ЮВ  16 км    5/5 1440 м  +31.0  +19.0  49  +36  +38  очень
душно 
  990.7         
22:55 25.05 Ю  16 км    ясно  +29.0  +18.0  51  +33  +35  очень
душно 
  989.4         
23:17 25.05 Ю  16 км    ясно  +29.0  +18.0  51  +33  +34  очень
душно 
  989.4         
01:15 26.05 Ю  16 км    ясно  +24.0  +18.0  69  +28  +28  душно    989.7         
01:55 26.05 Ю  16 км    ясно  +24.0  +19.0  74  +29  +29  душно    990.7         
02:15 26.05 Ю  16 км    ясно  +23.0  +19.0  78  +29  +29  очень
душно 
  991.1         
03:15 26.05 ЮВ  16 км    ясно  +23.0  +19.0  78  +29  +29  очень
душно 
  991.7         
04:37 26.05   16 км    ясно  +22.0  +19.0  83  +27  +27  душно    991.7         
04:56 26.05   16 км    ясно  +22.0  +19.0  83  +27  +27  душно    992.0         
05:56 26.05 ЮВ  16 км    ясно  +21.0  +19.0  88  +26  +26  душно    992.0         
07:16 26.05 ЮВ  16 км    ясно  +21.0  +19.0  88  +26  +26  душно    992.0         
07:57 26.05 В  16 км    8/0 2700 м
[средняя] 
+21.0  +19.0  88  +26  +26  душно    992.0         
09:55 26.05 Ю  16 км    ясно  +21.0  +19.0  88  +26  +26  душно    991.7         

 

Местоположение метеостанции Eaker Field Airport: широта 33.9422 долгота -96.3944 высота над уровнем моря 213 м.

В архиве по умолчанию представлена погода в Дюранте за последние 1-2 суток. Обновление информации о фактической погоде в базе происходит ежечасно! Архивные данные за месяц целиком и за предыдущие месяцы Вы можете получить, выбрав интересующий диапазон дат из раскрывающегося списка и нажав кнопку "Ввод!".

Внимание! Архив погоды МЕТАР в базе сайта хранится не более 60 дней. Нет смысла пытаться выбрать более раннюю дату.

Внимание! Время в таблицах - всемирное. Для получения местного времени необходимо прибавить поправку, которая в Дюранте равна -6 ч.

Ветер - указаны скорость ветра в м/с и направление, откуда дует ветер: С - северный, СВ - северо-восточный, В - восточный, ЮВ - юго-восточный, Ю - южный, ЮЗ - юго-западный, З - западный, СЗ - северо-западный.
Видимость - горизонтальная дальность видимости в метрах или километрах. При видимости от 1 до 10 км при отсутствии осадков обычно наблюдается дымка, при ухудшении видимости до 1 км и менее - туман. В сухую погоду видимость может ухудшаться дымом, пылью или мглою.
Атмосферные явления - указаны явления, наблюдавшиеся в указанный момент времени.
Облачность - указаны через наклонную черту верхняя и нижняя облачность в баллах и высота нижней границы облаков в метрах. Внимание: облачность, как и прочие метеорологические величины в США измеряются автоматическими метеостанциями. Указанные значения в баллах носят условный характер и показывают процент времени, в течение которого, в среднем, лазерный луч высотомера отражался от облаков обратно.
T - Температура воздуха - температура, измеренная на высоте 2 м над землей.
Td - Температура точки росы - температура, при понижении до которой содержащийся в воздухе водяной пар достигнет насыщения.
f - Относительная влажность воздуха - влажноcть воздуха, измеренная на высоте 2 м над землей.
Te - Эффективная температура - температура, которую ощущает одетый по сезону человек в тени. Характеристика душности погоды. При расчете учитывается влияние влажности воздуха и скорости ветра на теплоощущения человека.
Tes - Эффективная температура на солнце - температура, которую ощущает человек, с поправкой на солнечный нагрев. Характеристика знойности погоды. Зависит от высоты солнца над горизонтом, облачности и скорости ветра. Ночью, в пасмурную погоду, а также при ветре 12 м/с и более поправка равна нулю.
P - Атмосферное давление - приведенное к уровню моря атмосферное давление.
Po - Атмосферное давление - измеренное на уровне метеостанции атмосферное давление.
Tmin - Минимальная температура - минимум температуры воздуха на высоте 2 м над землей.
Tmax - Максимальная температура - максимум температуры воздуха на высоте 2 м над землей.
R - Количество осадков - Количество выпавших осадков за 3 или 6 часов, мм.
SD - Снежный покров - Высота снежного покрова, см.